���t,����,�O�C���x,�����t���O,�O�C���Ύ��x,�����t���O,���ԋ�C���x,�����t���O,���ԑ��Ύ��x,�����t���O,�g�C���^���N����,�����t���O,���֋�C���x,�����t���O,��g�[�����x,�����t���O
2005/1/1,0:00,4.4,0,50,0,,2,,2,10.6,0,9.7,0,8,0
2005/1/1,0:15,4.4,0,47,0,,2,,2,9.8,0,9.7,0,8,0
2005/1/1,0:30,4.3,0,47,0,,2,,2,9.8,0,9.7,0,8,0
2005/1/1,0:45,4.3,0,49,0,,2,,2,9.9,0,9.7,0,8,0
2005/1/1,1:00,4.3,0,51,0,,2,,2,9.9,0,9.7,0,8,0
2005/1/1,1:15,4.3,0,52,0,,2,,2,10,0,9.7,0,8,0
2005/1/1,1:30,4.3,0,51,0,,2,,2,10.1,0,9.7,0,8,0
2005/1/1,1:45,4.3,0,52,0,,2,,2,10.2,0,9.7,0,8,0
2005/1/1,2:00,4.2,0,53,0,,2,,2,10.3,0,9.7,0,8,0
2005/1/1,2:15,4.2,0,52,0,,2,,2,10.3,0,9.7,0,8,0
2005/1/1,2:30,4.1,0,52,0,,2,,2,10.4,0,9.7,0,7.9,0
2005/1/1,2:45,4.1,0,52,0,,2,,2,10,0,9.7,0,7.9,0
2005/1/1,3:00,4.2,0,52,0,,2,,2,10,0,9.7,0,7.9,0
2005/1/1,3:15,4.1,0,52,0,,2,,2,10.1,0,9.6,0,7.9,0
2005/1/1,3:30,4.1,0,52,0,,2,,2,10.1,0,9.6,0,7.8,0
2005/1/1,3:45,4,0,54,0,,2,,2,10.2,0,9.6,0,7.8,0
2005/1/1,4:00,3.8,0,56,0,,2,,2,10.3,0,9.5,0,7.8,0
2005/1/1,4:15,3.8,0,56,0,,2,,2,10.4,0,9.5,0,7.7,0
2005/1/1,4:30,3.8,0,57,0,,2,,2,10.4,0,9.5,0,7.7,0
2005/1/1,4:45,3.9,0,56,0,,2,,2,10.5,0,9.5,0,7.6,0
2005/1/1,5:00,3.8,0,56,0,,2,,2,10.6,0,9.4,0,7.6,0
2005/1/1,5:15,3.9,0,54,0,,2,,2,10.7,0,9.4,0,7.6,0
2005/1/1,5:30,3.9,0,51,0,,2,,2,10.8,0,9.4,0,7.5,0
2005/1/1,5:45,3.8,0,50,0,,2,,2,10.8,0,9.4,0,7.5,0
2005/1/1,6:00,3.8,0,50,0,,2,,2,10,0,9.3,0,7.5,0
2005/1/1,6:15,3.8,0,50,0,,2,,2,10.1,0,9.3,0,7.5,0
2005/1/1,6:30,3.8,0,52,0,,2,,2,10.1,0,9.3,0,7.5,0
2005/1/1,6:45,3.7,0,57,0,,2,,2,10.2,0,9.3,0,7.4,0
2005/1/1,7:00,3.8,0,58,0,,2,,2,10.2,0,9.3,0,7.4,0
2005/1/1,7:15,3.6,0,58,0,,2,,2,10.2,0,9.3,0,7.4,0
2005/1/1,7:30,3.5,0,59,0,,2,,2,10.3,0,9.3,0,7.4,0
2005/1/1,7:45,3.6,0,60,0,,2,,2,10.4,0,9.2,0,7.4,0
2005/1/1,8:00,3.8,0,58,0,,2,,2,10.4,0,9.2,0,7.4,0
2005/1/1,8:15,4,0,57,0,,2,,2,10.5,0,9.2,0,7.4,0
2005/1/1,8:30,4.2,0,56,0,,2,,2,10.6,0,9.2,0,7.3,0
2005/1/1,8:45,4.2,0,58,0,,2,,2,10.7,0,9.2,0,7.3,0
2005/1/1,9:00,3.9,0,65,0,,2,,2,10.7,0,9.2,0,7.3,0
2005/1/1,9:15,4.2,0,61,0,,2,,2,10.8,0,9.2,0,7.4,0
2005/1/1,9:30,4.8,0,53,0,,2,,2,10.9,0,9.1,0,7.4,0
2005/1/1,9:45,4.9,0,54,0,,2,,2,11,0,9.1,0,7.4,0
2005/1/1,10:00,5,0,55,0,,2,,2,11.1,0,9.1,0,7.4,0
2005/1/1,10:15,5.3,0,53,0,,2,,2,11.1,0,9.1,0,7.5,0
2005/1/1,10:30,5.9,0,47,0,,2,,2,11.2,0,9.1,0,7.6,0
2005/1/1,10:45,5.9,0,44,0,,2,,2,11.3,0,9.1,0,7.6,0
2005/1/1,11:00,6.7,0,43,0,,2,,2,9.8,0,9.1,0,7.7,0
2005/1/1,11:15,6.2,0,46,0,,2,,2,10.8,0,9.1,0,7.8,0
2005/1/1,11:30,5.9,0,44,0,,2,,2,11.3,0,9.2,0,8,0
2005/1/1,11:45,5.7,0,43,0,,2,,2,11.4,0,9.2,0,8.1,0
2005/1/1,12:00,6.1,0,41,0,,2,,2,11.4,0,9.2,0,8.2,0
2005/1/1,12:15,7.5,0,37,0,,2,,2,11.5,0,9.3,0,8.3,0
2005/1/1,12:30,8.2,0,36,0,,2,,2,11.5,0,9.3,0,8.4,0
2005/1/1,12:45,8.1,0,38,0,,2,,2,11.6,0,9.4,0,8.5,0
2005/1/1,13:00,8.3,0,37,0,,2,,2,10.6,0,9.4,0,8.7,0
2005/1/1,13:15,8.5,0,34,0,,2,,2,10.6,0,9.5,0,8.9,0
2005/1/1,13:30,8.4,0,34,0,,2,,2,10.7,0,9.6,0,9,0
2005/1/1,13:45,8.7,0,31,0,,2,,2,10.7,0,9.6,0,9.1,0
2005/1/1,14:00,8.8,0,31,0,,2,,2,10.8,0,9.7,0,9.3,0
2005/1/1,14:15,9.1,0,32,0,,2,,2,10.9,0,9.7,0,9.5,0
2005/1/1,14:30,8.4,0,33,0,,2,,2,11,0,9.8,0,9.7,0
2005/1/1,14:45,8.2,0,33,0,,2,,2,11,0,9.9,0,9.8,0
2005/1/1,15:00,7.5,0,34,0,,2,,2,11.1,0,9.9,0,10,0
2005/1/1,15:15,7,0,36,0,,2,,2,11.2,0,9.9,0,10.2,0
2005/1/1,15:30,6.6,0,39,0,,2,,2,11.2,0,10,0,10.3,0
2005/1/1,15:45,6.4,0,42,0,,2,,2,11.3,0,10,0,10.4,0
2005/1/1,16:00,6.2,0,43,0,,2,,2,11.4,0,10,0,10.4,0
2005/1/1,16:15,6.3,0,45,0,,2,,2,11.5,0,10,0,10.5,0
2005/1/1,16:30,6.2,0,42,0,,2,,2,11.5,0,10.1,0,10.6,0
2005/1/1,16:45,6,0,41,0,,2,,2,11.5,0,10.2,0,10.7,0
2005/1/1,17:00,5.8,0,41,0,,2,,2,11.8,0,10.2,0,10.7,0
2005/1/1,17:15,5.7,0,41,0,,2,,2,11.8,0,10.3,0,10.7,0
2005/1/1,17:30,5.6,0,43,0,,2,,2,11.9,0,10.3,0,10.6,0
2005/1/1,17:45,5.3,0,43,0,,2,,2,11.9,0,10.3,0,10.4,0
2005/1/1,18:00,5.3,0,45,0,,2,,2,12,0,10.3,0,10.3,0
2005/1/1,18:15,5.3,0,47,0,,2,,2,12,0,10.2,0,10.1,0
2005/1/1,18:30,5.2,0,44,0,,2,,2,12.1,0,10.2,0,9.9,0
2005/1/1,18:45,5.2,0,43,0,,2,,2,12.1,0,10.2,0,9.8,0
2005/1/1,19:00,4.9,0,42,0,,2,,2,12.2,0,10.2,0,9.6,0
2005/1/1,19:15,4.8,0,45,0,,2,,2,12.2,0,10.1,0,9.5,0
2005/1/1,19:30,4.8,0,46,0,,2,,2,12.3,0,10.1,0,9.4,0
2005/1/1,19:45,4.8,0,46,0,,2,,2,12.2,0,10,0,9.2,0
2005/1/1,20:00,4.7,0,46,0,,2,,2,12.3,0,10,0,9.1,0
2005/1/1,20:15,4.8,0,45,0,,2,,2,12.3,0,9.9,0,9,0
2005/1/1,20:30,4.8,0,44,0,,2,,2,12.4,0,9.9,0,8.8,0
2005/1/1,20:45,4.9,0,44,0,,2,,2,12.4,0,9.8,0,8.7,0
2005/1/1,21:00,4.7,0,44,0,,2,,2,12.5,0,9.8,0,8.6,0
2005/1/1,21:15,4.6,0,44,0,,2,,2,12.5,0,9.8,0,8.5,0
2005/1/1,21:30,4.6,0,44,0,,2,,2,12.6,0,9.7,0,8.4,0
2005/1/1,21:45,4.6,0,47,0,,2,,2,10.5,0,9.7,0,8.4,0
2005/1/1,22:00,4.7,0,48,0,,2,,2,10.5,0,9.7,0,8.3,0
2005/1/1,22:15,4.7,0,48,0,,2,,2,10.6,0,9.7,0,8.2,0
2005/1/1,22:30,4.7,0,46,0,,2,,2,10.6,0,9.6,0,8.1,0
2005/1/1,22:45,4.7,0,48,0,,2,,2,10.7,0,9.6,0,8.1,0
2005/1/1,23:00,4.6,0,46,0,,2,,2,10.8,0,9.6,0,8,0
2005/1/1,23:15,4.8,0,46,0,,2,,2,10.9,0,9.6,0,8,0
2005/1/1,23:30,4.8,0,46,0,,2,,2,10.9,0,9.5,0,8,0
2005/1/1,23:45,4.8,0,46,0,,2,,2,11,0,9.5,0,7.9,0
2005/1/2,0:00,4.8,0,46,0,,2,,2,11.4,0,9.5,0,7.9,0
2005/1/2,0:15,4.8,0,45,0,,2,,2,12,0,9.5,0,7.9,0
2005/1/2,0:30,4.8,0,45,0,,2,,2,12,0,9.5,0,7.8,0
2005/1/2,0:45,4.7,0,46,0,,2,,2,12.1,0,9.6,0,7.9,0
2005/1/2,1:00,4.6,0,46,0,,2,,2,12.1,0,9.6,0,8,0
2005/1/2,1:15,4.6,0,47,0,,2,,2,12.2,0,9.6,0,8,0
2005/1/2,1:30,4.4,0,49,0,,2,,2,12.2,0,9.6,0,8,0
2005/1/2,1:45,4.4,0,49,0,,2,,2,12.3,0,9.6,0,8.1,0
2005/1/2,2:00,4.4,0,48,0,,2,,2,12.3,0,9.6,0,8.1,0
2005/1/2,2:15,4.4,0,48,0,,2,,2,12.4,0,9.6,0,8.1,0
2005/1/2,2:30,4.4,0,48,0,,2,,2,12.4,0,9.6,0,8.1,0
2005/1/2,2:45,4.4,0,48,0,,2,,2,12.5,0,9.6,0,8,0
2005/1/2,3:00,4.3,0,49,0,,2,,2,12.5,0,9.5,0,8,0
2005/1/2,3:15,4.3,0,46,0,,2,,2,12.6,0,9.5,0,8,0
2005/1/2,3:30,4.2,0,45,0,,2,,2,12.7,0,9.5,0,8,0
2005/1/2,3:45,4.1,0,46,0,,2,,2,12.7,0,9.5,0,8,0
2005/1/2,4:00,4,0,47,0,,2,,2,12.8,0,9.5,0,7.9,0
2005/1/2,4:15,3.9,0,49,0,,2,,2,12.8,0,9.5,0,7.9,0
2005/1/2,4:30,3.8,0,50,0,,2,,2,12.8,0,9.4,0,7.8,0
2005/1/2,4:45,2.8,0,56,0,,2,,2,12.9,0,9.4,0,7.8,0
2005/1/2,5:00,2,0,65,0,,2,,2,12.9,0,9.4,0,7.8,0
2005/1/2,5:15,1.9,0,66,0,,2,,2,13,0,9.4,0,7.7,0
2005/1/2,5:30,2,0,67,0,,2,,2,13,0,9.3,0,7.7,0
2005/1/2,5:45,2.2,0,68,0,,2,,2,13.1,0,9.3,0,7.6,0
2005/1/2,6:00,2.5,0,68,0,,2,,2,13.1,0,9.3,0,7.5,0
2005/1/2,6:15,2.5,0,68,0,,2,,2,13.2,0,9.3,0,7.5,0
2005/1/2,6:30,2.5,0,69,0,,2,,2,13.2,0,9.2,0,7.4,0
2005/1/2,6:45,2.7,0,69,0,,2,,2,13.3,0,9.2,0,7.4,0
2005/1/2,7:00,2.9,0,69,0,,2,,2,13.3,0,9.2,0,7.4,0
2005/1/2,7:15,2.7,0,70,0,,2,,2,13.3,0,9.2,0,7.3,0
2005/1/2,7:30,2.4,0,70,0,,2,,2,13.3,0,9.1,0,7.3,0
2005/1/2,7:45,2.3,0,71,0,,2,,2,13.4,0,9.1,0,7.3,0
2005/1/2,8:00,2.6,0,71,0,,2,,2,13.4,0,9.1,0,7.3,0
2005/1/2,8:15,2.6,0,70,0,,2,,2,13.5,0,9.1,0,7.3,0
2005/1/2,8:30,2.8,0,71,0,,2,,2,13.5,0,9.1,0,7.2,0
2005/1/2,8:45,3.6,0,70,0,,2,,2,13.5,0,9.1,0,7.2,0
2005/1/2,9:00,3.6,0,67,0,,2,,2,13.6,0,9,0,7.2,0
2005/1/2,9:15,4.2,0,65,0,,2,,2,13.6,0,9,0,7.2,0
2005/1/2,9:30,5.2,0,65,0,,2,,2,13.6,0,9,0,7.3,0
2005/1/2,9:45,5.1,0,63,0,,2,,2,13.7,0,9,0,7.3,0
2005/1/2,10:00,5.7,0,59,0,,2,,2,13.7,0,9,0,7.4,0
2005/1/2,10:15,5.8,0,58,0,,2,,2,13.8,0,9,0,7.5,0
2005/1/2,10:30,5.7,0,60,0,,2,,2,13.8,0,9,0,7.6,0
2005/1/2,10:45,5.6,0,62,0,,2,,2,13.8,0,9,0,7.7,0
2005/1/2,11:00,6.2,0,60,0,,2,,2,13.8,0,9,0,7.8,0
2005/1/2,11:15,6.6,0,57,0,,2,,2,11.6,0,9,0,7.8,0
2005/1/2,11:30,6.6,0,58,0,,2,,2,11.5,0,9.1,0,7.9,0
2005/1/2,11:45,6.7,0,59,0,,2,,2,11.5,0,9.1,0,8,0
2005/1/2,12:00,6.8,0,59,0,,2,,2,11.6,0,9.1,0,8.1,0
2005/1/2,12:15,6.8,0,59,0,,2,,2,11.6,0,9.1,0,8.2,0
2005/1/2,12:30,6.8,0,58,0,,2,,2,11.7,0,9.2,0,8.3,0
2005/1/2,12:45,6.9,0,55,0,,2,,2,11.8,0,9.2,0,8.4,0
2005/1/2,13:00,8,0,55,0,,2,,2,11.8,0,9.2,0,8.5,0
2005/1/2,13:15,7.7,0,55,0,,2,,2,11.9,0,9.2,0,8.5,0
2005/1/2,13:30,7.4,0,57,0,,2,,2,12,0,9.2,0,8.6,0
2005/1/2,13:45,7.9,0,54,0,,2,,2,12,0,9.3,0,8.6,0
2005/1/2,14:00,8.4,0,51,0,,2,,2,10.9,0,9.3,0,8.7,0
2005/1/2,14:15,7.9,0,52,0,,2,,2,10.9,0,9.3,0,8.7,0
2005/1/2,14:30,7.8,0,53,0,,2,,2,11,0,9.4,0,8.8,0
2005/1/2,14:45,7.8,0,54,0,,2,,2,11,0,9.4,0,8.9,0
2005/1/2,15:00,8.4,0,52,0,,2,,2,11.1,0,9.4,0,8.9,0
2005/1/2,15:15,8.6,0,51,0,,2,,2,11.2,0,9.5,0,9,0
2005/1/2,15:30,8.9,0,49,0,,2,,2,11.8,0,9.5,0,9,0
2005/1/2,15:45,8.4,0,51,0,,2,,2,11.8,0,9.6,0,9.1,0
2005/1/2,16:00,8,0,53,0,,2,,2,11.9,0,9.6,0,9.2,0
2005/1/2,16:15,8.6,0,51,0,,2,,2,11.9,0,9.7,0,9.2,0
2005/1/2,16:30,8.2,0,51,0,,2,,2,12,0,9.7,0,9.3,0
2005/1/2,16:45,8,0,52,0,,2,,2,12.1,0,9.7,0,9.4,0
2005/1/2,17:00,7.7,0,54,0,,2,,2,12.1,0,9.8,0,9.4,0
2005/1/2,17:15,7.7,0,54,0,,2,,2,10.9,0,9.8,0,9.5,0
2005/1/2,17:30,7.4,0,55,0,,2,,2,10.9,0,9.8,0,9.5,0
2005/1/2,17:45,7.2,0,55,0,,2,,2,11,0,9.9,0,9.6,0
2005/1/2,18:00,6.8,0,57,0,,2,,2,11.1,0,9.9,0,9.6,0
2005/1/2,18:15,6.7,0,58,0,,2,,2,11.1,0,9.9,0,9.5,0
2005/1/2,18:30,6.3,0,61,0,,2,,2,10.5,0,9.9,0,9.5,0
2005/1/2,18:45,6.5,0,60,0,,2,,2,10.5,0,10,0,9.4,0
2005/1/2,19:00,6.5,0,61,0,,2,,2,10.6,0,10,0,9.4,0
2005/1/2,19:15,6.4,0,62,0,,2,,2,10.6,0,10,0,9.3,0
2005/1/2,19:30,6.2,0,63,0,,2,,2,10.7,0,10,0,9.2,0
2005/1/2,19:45,6.5,0,62,0,,2,,2,10.8,0,10,0,9.2,0
2005/1/2,20:00,6.5,0,62,0,,2,,2,10.9,0,10,0,9.1,0
2005/1/2,20:15,6.7,0,61,0,,2,,2,11,0,10,0,9.1,0
2005/1/2,20:30,6.8,0,61,0,,2,,2,10.4,0,10,0,9.1,0
2005/1/2,20:45,7,0,61,0,,2,,2,10.4,0,10.2,0,9,0
2005/1/2,21:00,6.8,0,63,0,,2,,2,10.5,0,10.3,0,9,0
2005/1/2,21:15,7.1,0,62,0,,2,,2,10.6,0,10.4,0,9,0
2005/1/2,21:30,7.1,0,61,0,,2,,2,10.7,0,10.4,0,9,0
2005/1/2,21:45,7.1,0,62,0,,2,,2,10.8,0,10.4,0,9,0
2005/1/2,22:00,7.1,0,63,0,,2,,2,10.8,0,10.4,0,9,0
2005/1/2,22:15,6.8,0,63,0,,2,,2,11,0,10.3,0,9,0
2005/1/2,22:30,6.6,0,64,0,,2,,2,11,0,10.2,0,9,0
2005/1/2,22:45,6.5,0,64,0,,2,,2,10.8,0,10.2,0,8.9,0
2005/1/2,23:00,6.5,0,63,0,,2,,2,10.8,0,10.1,0,8.9,0
2005/1/2,23:15,6.4,0,62,0,,2,,2,10.8,0,10.1,0,8.9,0
2005/1/2,23:30,6.2,0,62,0,,2,,2,10.9,0,10.1,0,8.9,0
2005/1/2,23:45,5.9,0,63,0,,2,,2,11,0,10.1,0,8.8,0
2005/1/3,0:00,6.6,0,63,0,,2,,2,11.7,0,10.1,0,8.8,0
2005/1/3,0:15,6.2,0,63,0,,2,,2,11.7,0,10.1,0,8.8,0
2005/1/3,0:30,6.2,0,63,0,,2,,2,11.8,0,10.1,0,8.7,0
2005/1/3,0:45,5.8,0,65,0,,2,,2,11.8,0,10.1,0,8.7,0
2005/1/3,1:00,5.7,0,67,0,,2,,2,11.9,0,10.1,0,8.6,0
2005/1/3,1:15,5.5,0,68,0,,2,,2,12,0,10.1,0,8.6,0
2005/1/3,1:30,5.8,0,70,0,,2,,2,12.1,0,10.1,0,8.6,0
2005/1/3,1:45,6.1,0,70,0,,2,,2,12.2,0,10.2,0,8.6,0
2005/1/3,2:00,6.2,0,65,0,,2,,2,12.2,0,10.2,0,8.6,0
2005/1/3,2:15,6.2,0,65,0,,2,,2,12.3,0,10.2,0,8.6,0
2005/1/3,2:30,6.1,0,66,0,,2,,2,12.4,0,10.2,0,8.5,0
2005/1/3,2:45,6.2,0,67,0,,2,,2,12.5,0,10.2,0,8.5,0
2005/1/3,3:00,6.4,0,68,0,,2,,2,12.5,0,10.2,0,8.5,0
2005/1/3,3:15,6.3,0,68,0,,2,,2,12.6,0,10.1,0,8.5,0
2005/1/3,3:30,6.5,0,68,0,,2,,2,12.7,0,10.1,0,8.4,0
2005/1/3,3:45,6.5,0,68,0,,2,,2,12.8,0,10.1,0,8.4,0
2005/1/3,4:00,6.9,0,65,0,,2,,2,12.8,0,10.1,0,8.4,0
2005/1/3,4:15,6.8,0,66,0,,2,,2,12.9,0,10.1,0,8.4,0
2005/1/3,4:30,6.9,0,65,0,,2,,2,12.9,0,10.1,0,8.4,0
2005/1/3,4:45,7.2,0,63,0,,2,,2,13,0,10.1,0,8.4,0
2005/1/3,5:00,7.2,0,63,0,,2,,2,13.1,0,10.1,0,8.4,0
2005/1/3,5:15,7.2,0,63,0,,2,,2,13.2,0,10.1,0,8.4,0
2005/1/3,5:30,7.5,0,62,0,,2,,2,13.2,0,10.1,0,8.4,0
2005/1/3,5:45,7.5,0,63,0,,2,,2,13.3,0,10.1,0,8.4,0
2005/1/3,6:00,7.5,0,64,0,,2,,2,13.3,0,10.1,0,8.5,0
2005/1/3,6:15,7.5,0,65,0,,2,,2,13.4,0,10.1,0,8.5,0
2005/1/3,6:30,7.8,0,64,0,,2,,2,13.4,0,10.1,0,8.5,0
2005/1/3,6:45,7.9,0,62,0,,2,,2,13.5,0,10.1,0,8.5,0
2005/1/3,7:00,8,0,61,0,,2,,2,13.6,0,10,0,8.5,0
2005/1/3,7:15,8.1,0,62,0,,2,,2,13.6,0,10,0,8.5,0
2005/1/3,7:30,8.4,0,61,0,,2,,2,13.7,0,10,0,8.5,0
2005/1/3,7:45,8.4,0,62,0,,2,,2,13.7,0,10,0,8.5,0
2005/1/3,8:00,8.4,0,64,0,,2,,2,13.8,0,10,0,8.6,0
2005/1/3,8:15,8.3,0,64,0,,2,,2,13.8,0,10,0,8.6,0
2005/1/3,8:30,8.4,0,65,0,,2,,2,13.9,0,10,0,8.7,0
2005/1/3,8:45,9.6,0,63,0,,2,,2,13.2,0,10,0,8.7,0
2005/1/3,9:00,10.4,0,59,0,,2,,2,12.2,0,10,0,8.7,0
2005/1/3,9:15,11.1,0,58,0,,2,,2,12,0,10.1,0,8.8,0
2005/1/3,9:30,11.8,0,56,0,,2,,2,12,0,10.1,0,8.9,0
2005/1/3,9:45,11.6,0,57,0,,2,,2,12,0,10.2,0,9.1,0
2005/1/3,10:00,11.4,0,57,0,,2,,2,12.1,0,10.2,0,9.2,0
2005/1/3,10:15,10,0,63,0,,2,,2,12.2,0,10.3,0,9.4,0
2005/1/3,10:30,9.8,0,66,0,,2,,2,12.3,0,10.3,0,9.5,0
2005/1/3,10:45,9.8,0,67,0,,2,,2,11.4,0,10.4,0,9.7,0
2005/1/3,11:00,10.9,0,66,0,,2,,2,11.4,0,10.5,0,9.8,0
2005/1/3,11:15,11.2,0,62,0,,2,,2,11.5,0,10.5,0,9.9,0
2005/1/3,11:30,11,0,64,0,,2,,2,11.6,0,10.6,0,10,0
2005/1/3,11:45,11.8,0,61,0,,2,,2,11.6,0,10.6,0,10.1,0
2005/1/3,12:00,11.6,0,63,0,,2,,2,11.7,0,10.6,0,10.1,0
2005/1/3,12:15,12,0,63,0,,2,,2,11.8,0,10.7,0,10.3,0
2005/1/3,12:30,12.2,0,62,0,,2,,2,11.9,0,10.7,0,10.3,0
2005/1/3,12:45,11.6,0,65,0,,2,,2,12,0,10.8,0,10.4,0
2005/1/3,13:00,12.5,0,64,0,,2,,2,12.1,0,10.8,0,10.5,0
2005/1/3,13:15,13.3,0,60,0,,2,,2,12.2,0,10.9,0,10.5,0
2005/1/3,13:30,14.7,0,54,0,,2,,2,12.3,0,10.9,0,10.6,0
2005/1/3,13:45,14.1,0,55,0,,2,,2,12.4,0,11,0,10.7,0
2005/1/3,14:00,13.7,0,58,0,,2,,2,12.5,0,11,0,10.9,0
2005/1/3,14:15,14.4,0,55,0,,2,,2,12.6,0,11.1,0,11,0
2005/1/3,14:30,14,0,55,0,,2,,2,12.7,0,11.1,0,11.1,0
2005/1/3,14:45,14.1,0,59,0,,2,,2,12.7,0,11.2,0,11.2,0
2005/1/3,15:00,14.6,0,56,0,,2,,2,12.8,0,11.3,0,11.3,0
2005/1/3,15:15,14.4,0,54,0,,2,,2,12.9,0,11.3,0,11.4,0
2005/1/3,15:30,13.9,0,54,0,,2,,2,13,0,11.4,0,11.6,0
2005/1/3,15:45,13.4,0,56,0,,2,,2,13.1,0,11.4,0,11.7,0
2005/1/3,16:00,13,0,59,0,,2,,2,13.2,0,11.5,0,11.8,0
2005/1/3,16:15,13,0,58,0,,2,,2,13.2,0,11.5,0,11.8,0
2005/1/3,16:30,12.7,0,60,0,,2,,2,13.3,0,11.6,0,11.9,0
2005/1/3,16:45,12.9,0,59,0,,2,,2,13.4,0,11.6,0,12,0
2005/1/3,17:00,12.7,0,59,0,,2,,2,13.5,0,11.7,0,12,0
2005/1/3,17:15,12.7,0,59,0,,2,,2,13.6,0,11.7,0,12,0
2005/1/3,17:30,12.7,0,56,0,,2,,2,13.7,0,11.7,0,12.1,0
2005/1/3,17:45,12.4,0,56,0,,2,,2,13.7,0,11.8,0,12.1,0
2005/1/3,18:00,12.3,0,57,0,,2,,2,13.8,0,11.8,0,12.1,0
2005/1/3,18:15,12.3,0,55,0,,2,,2,13.9,0,11.8,0,12.1,0
2005/1/3,18:30,12.1,0,54,0,,2,,2,13.9,0,11.8,0,12.1,0
2005/1/3,18:45,11.5,0,59,0,,2,,2,14,0,11.9,0,12.1,0
2005/1/3,19:00,11.3,0,59,0,,2,,2,14.1,0,11.9,0,12.1,0
2005/1/3,19:15,11.2,0,58,0,,2,,2,14.2,0,11.9,0,12.1,0
2005/1/3,19:30,11.4,0,56,0,,2,,2,14.2,0,11.9,0,12,0
2005/1/3,19:45,10.8,0,62,0,,2,,2,14.3,0,12,0,12,0
2005/1/3,20:00,11.1,0,58,0,,2,,2,14.4,0,12,0,12,0
2005/1/3,20:15,11.8,0,53,0,,2,,2,14.4,0,12,0,11.9,0
2005/1/3,20:30,12.2,0,52,0,,2,,2,14.5,0,12,0,11.9,0
2005/1/3,20:45,12.3,0,54,0,,2,,2,14.6,0,12,0,11.8,0
2005/1/3,21:00,12.3,0,56,0,,2,,2,14.6,0,12,0,11.8,0
2005/1/3,21:15,12.1,0,58,0,,2,,2,14.7,0,12,0,11.8,0
2005/1/3,21:30,12.1,0,59,0,,2,,2,14.7,0,12,0,11.8,0
2005/1/3,21:45,12.1,0,60,0,,2,,2,14.8,0,12.1,0,11.8,0
2005/1/3,22:00,12.5,0,59,0,,2,,2,14.8,0,12.1,0,11.8,0
2005/1/3,22:15,12.6,0,59,0,,2,,2,14.3,0,12.4,0,11.8,0
2005/1/3,22:30,12.5,0,64,0,,2,,2,12,0,12.6,0,11.8,0
2005/1/3,22:45,12.4,0,65,0,,2,,2,12,0,12.5,0,11.8,0
2005/1/3,23:00,12.3,0,69,0,,2,,2,12.1,0,12.5,0,11.8,0
2005/1/3,23:15,12,0,74,0,,2,,2,12.2,0,12.5,0,11.8,0
2005/1/3,23:30,12,0,76,0,,2,,2,12.3,0,12.5,0,11.8,0
2005/1/3,23:45,12,0,78,0,,2,,2,12.4,0,12.5,0,11.9,0
2005/1/4,0:00,11.8,0,82,0,,2,,2,11.6,0,12.5,0,11.9,0
2005/1/4,0:15,11.5,0,87,0,,2,,2,11.6,0,12.5,0,11.9,0
2005/1/4,0:30,11.3,0,91,0,,2,,2,11.7,0,12.5,0,11.9,0
2005/1/4,0:45,11,0,93,0,,2,,2,11.8,0,12.5,0,11.9,0
2005/1/4,1:00,11,0,91,0,,2,,2,11.9,0,12.5,0,11.9,0
2005/1/4,1:15,10.8,0,86,0,,2,,2,12,0,12.5,0,11.9,0
2005/1/4,1:30,10.5,0,82,0,,2,,2,12.1,0,12.5,0,11.9,0
2005/1/4,1:45,10.5,0,79,0,,2,,2,12.2,0,12.5,0,11.9,0
2005/1/4,2:00,10.3,0,76,0,,2,,2,12.3,0,12.5,0,11.9,0
2005/1/4,2:15,10.2,0,72,0,,2,,2,11.5,0,12.5,0,11.9,0
2005/1/4,2:30,10.1,0,69,0,,2,,2,11.5,0,12.6,0,11.9,0
2005/1/4,2:45,9.9,0,65,0,,2,,2,11.6,0,12.6,0,11.9,0
2005/1/4,3:00,9.8,0,63,0,,2,,2,11.5,0,12.6,0,11.9,0
2005/1/4,3:15,9.8,0,63,0,,2,,2,11.6,0,12.6,0,11.9,0
2005/1/4,3:30,9.8,0,64,0,,2,,2,11.6,0,12.6,0,11.9,0
2005/1/4,3:45,9.7,0,63,0,,2,,2,11.7,0,12.6,0,11.8,0
2005/1/4,4:00,9.8,0,64,0,,2,,2,11.8,0,12.6,0,11.8,0
2005/1/4,4:15,9.7,0,64,0,,2,,2,11.9,0,12.6,0,11.7,0
2005/1/4,4:30,9.7,0,65,0,,2,,2,12,0,12.6,0,11.7,0
2005/1/4,4:45,9.4,0,65,0,,2,,2,12.1,0,12.6,0,11.6,0
2005/1/4,5:00,9.3,0,63,0,,2,,2,12.2,0,12.6,0,11.6,0
2005/1/4,5:15,9.2,0,63,0,,2,,2,12.3,0,12.6,0,11.6,0
2005/1/4,5:30,9.1,0,60,0,,2,,2,12.4,0,12.6,0,11.5,0
2005/1/4,5:45,9.1,0,62,0,,2,,2,12.5,0,12.6,0,11.5,0
2005/1/4,6:00,8.9,0,64,0,,2,,2,12.6,0,12.5,0,11.5,0
2005/1/4,6:15,8.8,0,62,0,,2,,2,12.7,0,12.5,0,11.4,0
2005/1/4,6:30,8.6,0,61,0,,2,,2,12.8,0,12.5,0,11.4,0
2005/1/4,6:45,8.5,0,62,0,,2,,2,12.8,0,12.5,0,11.3,0
2005/1/4,7:00,8.4,0,62,0,,2,,2,12.9,0,12.5,0,11.3,0
2005/1/4,7:15,8.4,0,62,0,,2,,2,13,0,12.5,0,11.2,0
2005/1/4,7:30,8.3,0,60,0,,2,,2,13.1,0,12.4,0,11.2,0
2005/1/4,7:45,8.2,0,59,0,,2,,2,13.2,0,12.4,0,11.1,0
2005/1/4,8:00,8.2,0,60,0,,2,,2,13.3,0,12.4,0,11.1,0
2005/1/4,8:15,8.1,0,60,0,,2,,2,13.4,0,12.4,0,11.1,0
2005/1/4,8:30,8.5,0,56,0,,2,,2,13.4,0,12.3,0,11,0
2005/1/4,8:45,9.2,0,52,0,,2,,2,13.5,0,12.3,0,11,0
2005/1/4,9:00,10.4,0,48,0,,2,,2,13.6,0,12.3,0,11,0
2005/1/4,9:15,11.5,0,41,0,,2,,2,13.6,0,12.3,0,11.1,0
2005/1/4,9:30,11.3,0,43,0,,2,,2,13.7,0,12.3,0,11.1,0
2005/1/4,9:45,11.1,0,43,0,,2,,2,13.8,0,12.3,0,11.2,0
2005/1/4,10:00,12.2,0,41,0,,2,,2,13.9,0,12.2,0,11.3,0
2005/1/4,10:15,12.8,0,40,0,,2,,2,13.9,0,12.2,0,11.4,0
2005/1/4,10:30,10.9,0,46,0,,2,,2,14,0,12.2,0,11.5,0
2005/1/4,10:45,10.2,0,50,0,,2,,2,11.9,0,12.2,0,11.6,0
2005/1/4,11:00,9.5,0,51,0,,2,,2,11.9,0,12.2,0,11.7,0
2005/1/4,11:15,9.2,0,52,0,,2,,2,12,0,12.2,0,11.8,0
2005/1/4,11:30,8.9,0,53,0,,2,,2,12.1,0,12.2,0,11.9,0
2005/1/4,11:45,8.6,0,52,0,,2,,2,11.6,0,12.2,0,12,0
2005/1/4,12:00,8.4,0,52,0,,2,,2,11.7,0,12.2,0,12,0
2005/1/4,12:15,8.4,0,48,0,,2,,2,11.8,0,12.2,0,12.1,0
2005/1/4,12:30,8.6,0,40,0,,2,,2,11.9,0,12.2,0,12.1,0
2005/1/4,12:45,9.6,0,35,0,,2,,2,11.9,0,12.2,0,12.1,0
2005/1/4,13:00,10.3,0,29,0,,2,,2,12,0,12.2,0,12.1,0
2005/1/4,13:15,10.7,0,30,0,,2,,2,12.1,0,12.2,0,12.1,0
2005/1/4,13:30,10.9,0,28,0,,2,,2,12.2,0,12.2,0,12.2,0
2005/1/4,13:45,11.1,0,31,0,,2,,2,12.3,0,12.2,0,12.3,0
2005/1/4,14:00,10.8,0,33,0,,2,,2,12.4,0,12.2,0,12.4,0
2005/1/4,14:15,10.7,0,36,0,,2,,2,12.5,0,12.2,0,12.5,0
2005/1/4,14:30,9.3,0,40,0,,2,,2,12.5,0,12.2,0,12.6,0
2005/1/4,14:45,9.8,0,41,0,,2,,2,11.7,0,12.3,0,12.8,0
2005/1/4,15:00,9.3,0,39,0,,2,,2,12.1,0,12.4,0,12.9,0
2005/1/4,15:15,9.4,0,38,0,,2,,2,12.1,0,12.4,0,13,0
2005/1/4,15:30,8.9,0,39,0,,2,,2,12.2,0,12.4,0,13.1,0
2005/1/4,15:45,8.6,0,40,0,,2,,2,12.2,0,12.4,0,13.2,0
2005/1/4,16:00,8.4,0,42,0,,2,,2,12.3,0,12.4,0,13.3,0
2005/1/4,16:15,7.8,0,43,0,,2,,2,12.4,0,12.4,0,13.3,0
2005/1/4,16:30,7.6,0,43,0,,2,,2,12.5,0,12.4,0,13.3,0
2005/1/4,16:45,7.2,0,43,0,,2,,2,12.6,0,12.4,0,13.3,0
2005/1/4,17:00,6.9,0,42,0,,2,,2,12.6,0,12.3,0,13.3,0
2005/1/4,17:15,6.6,0,43,0,,2,,2,12.7,0,12.3,0,13.2,0
2005/1/4,17:30,6.5,0,44,0,,2,,2,11.3,0,12.3,0,13.1,0
2005/1/4,17:45,6.2,0,45,0,,2,,2,11.3,0,12.3,0,13.1,0
2005/1/4,18:00,6.1,0,46,0,,2,,2,11.3,0,12.3,0,12.9,0
2005/1/4,18:15,6.1,0,47,0,,2,,2,11.3,0,12.2,0,12.7,0
2005/1/4,18:30,6.1,0,46,0,,2,,2,11.4,0,12.1,0,12.4,0
2005/1/4,18:45,6,0,47,0,,2,,2,11.5,0,12.1,0,12.1,0
2005/1/4,19:00,5.9,0,48,0,,2,,2,11.6,0,12,0,11.9,0
2005/1/4,19:15,5.8,0,47,0,,2,,2,11.7,0,12,0,11.7,0
2005/1/4,19:30,5.8,0,48,0,,2,,2,11.7,0,11.9,0,11.5,0
2005/1/4,19:45,5.7,0,47,0,,2,,2,11.8,0,11.9,0,11.3,0
2005/1/4,20:00,5.5,0,45,0,,2,,2,11.9,0,11.8,0,11.2,0
2005/1/4,20:15,5.6,0,48,0,,2,,2,12,0,11.7,0,11,0
2005/1/4,20:30,5.5,0,43,0,,2,,2,12,0,11.7,0,10.8,0
2005/1/4,20:45,5.5,0,45,0,,2,,2,12.1,0,11.6,0,10.7,0
2005/1/4,21:00,5.5,0,45,0,,2,,2,12.2,0,11.6,0,10.5,0
2005/1/4,21:15,5.5,0,45,0,,2,,2,12.3,0,11.5,0,10.4,0
2005/1/4,21:30,5.4,0,44,0,,2,,2,12.3,0,11.4,0,10.3,0
2005/1/4,21:45,5.5,0,44,0,,2,,2,12.4,0,11.4,0,10.2,0
2005/1/4,22:00,5.4,0,45,0,,2,,2,12.5,0,11.3,0,10.1,0
2005/1/4,22:15,5.4,0,44,0,,2,,2,12.5,0,11.3,0,9.9,0
2005/1/4,22:30,5.4,0,45,0,,2,,2,12.6,0,11.2,0,9.9,0
2005/1/4,22:45,5.3,0,44,0,,2,,2,12.7,0,11.2,0,9.8,0
2005/1/4,23:00,5.3,0,45,0,,2,,2,12.7,0,11.1,0,9.7,0
2005/1/4,23:15,5.2,0,46,0,,2,,2,12.8,0,11,0,9.6,0
2005/1/4,23:30,5.3,0,46,0,,2,,2,11.2,0,11,0,9.6,0
2005/1/4,23:45,5.2,0,46,0,,2,,2,11.2,0,11,0,9.5,0
2005/1/5,0:00,5.3,0,47,0,,2,,2,11.2,0,11,0,9.5,0
2005/1/5,0:15,5.3,0,47,0,,2,,2,11.3,0,10.9,0,9.4,0
2005/1/5,0:30,5.2,0,47,0,,2,,2,11.4,0,10.9,0,9.4,0
2005/1/5,0:45,5.3,0,48,0,,2,,2,11.4,0,11,0,9.4,0
2005/1/5,1:00,5.2,0,49,0,,2,,2,11.6,0,11,0,9.4,0
2005/1/5,1:15,5.2,0,47,0,,2,,2,11.6,0,11,0,9.5,0
2005/1/5,1:30,5.2,0,49,0,,2,,2,11.7,0,11,0,9.4,0
2005/1/5,1:45,5.3,0,51,0,,2,,2,11.8,0,11,0,9.3,0
2005/1/5,2:00,5.3,0,48,0,,2,,2,11.9,0,11,0,9.3,0
2005/1/5,2:15,5.3,0,48,0,,2,,2,11.9,0,10.9,0,9.2,0
2005/1/5,2:30,5.4,0,51,0,,2,,2,12,0,10.9,0,9.2,0
2005/1/5,2:45,5.5,0,53,0,,2,,2,12.1,0,10.9,0,9.2,0
2005/1/5,3:00,5.6,0,53,0,,2,,2,12.2,0,10.9,0,9.1,0
2005/1/5,3:15,5.7,0,53,0,,2,,2,12.2,0,10.8,0,9.1,0
2005/1/5,3:30,5.8,0,55,0,,2,,2,12.3,0,10.8,0,9.1,0
2005/1/5,3:45,5.8,0,54,0,,2,,2,12.4,0,10.8,0,9.1,0
2005/1/5,4:00,5.6,0,54,0,,2,,2,12.5,0,10.8,0,9.1,0
2005/1/5,4:15,5.3,0,61,0,,2,,2,12.5,0,10.8,0,9.1,0
2005/1/5,4:30,5,0,66,0,,2,,2,12.6,0,10.7,0,9,0
2005/1/5,4:45,4.8,0,73,0,,2,,2,12.7,0,10.7,0,9,0
2005/1/5,5:00,4.6,0,77,0,,2,,2,12.7,0,10.7,0,9,0
2005/1/5,5:15,4.5,0,79,0,,2,,2,12.8,0,10.7,0,9,0
2005/1/5,5:30,4.5,0,80,0,,2,,2,12.8,0,10.6,0,9,0
2005/1/5,5:45,4.2,0,83,0,,2,,2,12.9,0,10.6,0,8.9,0
2005/1/5,6:00,4.1,0,85,0,,2,,2,13,0,10.6,0,8.9,0
2005/1/5,6:15,4,0,85,0,,2,,2,13,0,10.6,0,8.9,0
2005/1/5,6:30,4,0,85,0,,2,,2,13.1,0,10.5,0,8.8,0
2005/1/5,6:45,4,0,85,0,,2,,2,13.2,0,10.5,0,8.8,0
2005/1/5,7:00,4,0,84,0,,2,,2,13.2,0,10.5,0,8.8,0
2005/1/5,7:15,4.1,0,81,0,,2,,2,13.3,0,10.5,0,8.7,0
2005/1/5,7:30,4.1,0,77,0,,2,,2,13.3,0,10.4,0,8.7,0
2005/1/5,7:45,4.3,0,72,0,,2,,2,13.4,0,10.4,0,8.7,0
2005/1/5,8:00,4.4,0,70,0,,2,,2,13.4,0,10.4,0,8.6,0
2005/1/5,8:15,4.4,0,71,0,,2,,2,13.5,0,10.4,0,8.6,0
2005/1/5,8:30,4.4,0,69,0,,2,,2,13.5,0,10.3,0,8.6,0
2005/1/5,8:45,4.6,0,68,0,,2,,2,13.6,0,10.3,0,8.6,0
2005/1/5,9:00,4.6,0,70,0,,2,,2,13.6,0,10.3,0,8.5,0
2005/1/5,9:15,4.9,0,65,0,,2,,2,13.7,0,10.3,0,8.5,0
2005/1/5,9:30,5.2,0,63,0,,2,,2,13.7,0,10.2,0,8.6,0
2005/1/5,9:45,5.6,0,63,0,,2,,2,13.8,0,10.2,0,8.6,0
2005/1/5,10:00,7.5,0,60,0,,2,,2,11.7,0,10.2,0,8.6,0
2005/1/5,10:15,7.2,0,57,0,,2,,2,11.8,0,10.2,0,8.6,0
2005/1/5,10:30,6.9,0,59,0,,2,,2,11.8,0,10,0,8.7,0
2005/1/5,10:45,6.7,0,66,0,,2,,2,11.8,0,10,0,8.8,0
2005/1/5,11:00,6.8,0,63,0,,2,,2,11.8,0,10,0,8.9,0
2005/1/5,11:15,7.4,0,56,0,,2,,2,11.8,0,10.1,0,9,0
2005/1/5,11:30,7.5,0,53,0,,2,,2,11.9,0,10.1,0,9.1,0
2005/1/5,11:45,7.8,0,51,0,,2,,2,11.9,0,10.1,0,9.2,0
2005/1/5,12:00,7.9,0,49,0,,2,,2,12,0,10.1,0,9.3,0
2005/1/5,12:15,8.1,0,44,0,,2,,2,12,0,10.3,0,9.4,0
2005/1/5,12:30,8.4,0,43,0,,2,,2,12.1,0,10.3,0,9.4,0
2005/1/5,12:45,9.1,0,42,0,,2,,2,12.2,0,10.4,0,9.5,0
2005/1/5,13:00,10,0,39,0,,2,,2,12.2,0,10.4,0,9.6,0
2005/1/5,13:15,10.4,0,36,0,,2,,2,12.2,0,10.4,0,9.7,0
2005/1/5,13:30,9.5,0,38,0,,2,,2,12,0,10.5,0,9.8,0
2005/1/5,13:45,9.4,0,39,0,,2,,2,12,0,10.6,0,10,0
2005/1/5,14:00,9.9,0,37,0,,2,,2,12.1,0,10.9,0,10.2,0
2005/1/5,14:15,10.3,0,36,0,,2,,2,12.1,0,11,0,10.3,0
2005/1/5,14:30,10.2,0,36,0,,2,,2,12.2,0,11.1,0,10.8,0
2005/1/5,14:45,10.6,0,36,0,,2,,2,11.2,0,11.1,0,11.2,0
2005/1/5,15:00,10.3,0,35,0,,2,,2,11.3,0,11.1,0,11.4,0
2005/1/5,15:15,10,0,36,0,,2,,2,11.3,0,11.2,0,11.6,0
2005/1/5,15:30,10.2,0,36,0,,2,,2,11.4,0,11.3,0,11.7,0
2005/1/5,15:45,10,0,37,0,,2,,2,10.8,0,11.3,0,11.8,0
2005/1/5,16:00,9.5,0,37,0,,2,,2,12.3,0,11.4,0,11.8,0
2005/1/5,16:15,9.1,0,39,0,,2,,2,12.1,0,11.5,0,11.9,0
2005/1/5,16:30,8.7,0,41,0,,2,,2,12.1,0,11.5,0,11.9,0
2005/1/5,16:45,8.6,0,42,0,,2,,2,12.1,0,11.6,0,12,0
2005/1/5,17:00,8,0,44,0,,2,,2,12.1,0,11.6,0,12,0
2005/1/5,17:15,7.8,0,45,0,,2,,2,12.2,0,11.7,0,12,0
2005/1/5,17:30,7.6,0,45,0,,2,,2,11.8,0,11.7,0,12,0
2005/1/5,17:45,7.3,0,46,0,,2,,2,11.8,0,11.8,0,12,0
2005/1/5,18:00,7.1,0,48,0,,2,,2,11.8,0,11.8,0,11.9,0
2005/1/5,18:15,6.9,0,48,0,,2,,2,11.8,0,11.9,0,11.7,0
2005/1/5,18:30,6.8,0,49,0,,2,,2,11.8,0,11.9,0,11.6,0